Orbital Elements at Epoch 2459200.5 (2020-Dec-17.0) TDB
Reference: JPL 26 (heliocentric ecliptic J2000)
Element | Value | Uncertainty (1-sigma) | Units |
e | .1042706974388609 | 4.0813e-08 | |
a | 2.248677915013683 | 8.7226e-09 | au |
q | 2.014206700499843 | 9.3631e-08 | au |
i | 4.879061142182366 | 4.7427e-06 | deg |
node | 348.7555289747656 | 4.4489e-05 | deg |
peri | 208.9638006090795 | 4.8956e-05 | deg |
M | 18.11308033318631 | 2.1074e-05 | deg |
tp | 2459138.530338881260 (2020-Oct-16.03033888) | 7.2002e-05 | TDB |
period | 1231.655664987712 3.37 | 7.1664e-06 1.962e-08 | d yr |
n | .2922894849865296 | 1.7007e-09 | deg/d |
Q | 2.483149129527523 | 9.6321e-09 | au |
|
| | Orbit Determination Parameters
Additional Information
|